Hourly Data Report for July 04, 2022

TORONTO CITY
ONTARIO
Current Station Operator: ECCC - MSC

43°40'00.000" N
79°24'00.000" W
112.50 m
6158355
71508
XTO

Download Data

Hourly Data (July 2022)
Hourly Data Report for July 4, 2022
TIME
LST
Temp Definition
°C
Dew Point Definition
°C
Rel Hum Definition
%
Precip. Amount Definition
mm

Wind Dir Definition
10's deg

Wind Spd Definition
km/h
Visibility Definition
km
Stn Press Definition
kPa
Hmdx Definition


Wind Chill Definition


Weather Definition


00:00 18.3 9.2 55 0.0       100.73     LegendNANA
01:00 17.8 9.5 58 0.0       100.73     LegendNANA
02:00 17.2 10.7 66 0.0       100.76     LegendNANA
03:00 16.7 10.2 65 0.0       100.75     LegendNANA
04:00 16.9 9.5 62 0.0       100.75     LegendNANA
05:00 16.9 10.1 64 0.0       100.77     LegendNANA
06:00 16.9 11.0 68 0.0       100.80     LegendNANA
07:00 19.2 11.8 62 0.0       100.84     LegendNANA
08:00 21.3 10.5 50 0.0       100.82     LegendNANA
09:00 22.4 10.4 47 0.0       100.81     LegendNANA
10:00 24.0 9.2 39 0.0       100.85 25   LegendNANA
11:00 24.3 9.9 40 0.0       100.82 26   LegendNANA
12:00 23.9 9.7 40 0.0       100.78 25   LegendNANA
13:00 24.3 9.7 40 0.0       100.72 25   LegendNANA
14:00 25.1 10.5 40 0.0       100.67 27   LegendNANA
15:00 23.7 10.1 42 0.0       100.64 25   LegendNANA
16:00 24.0 10.1 41 0.0       100.57 25   LegendNANA
17:00 23.4 9.2 40 0.0       100.54     LegendNANA
18:00 23.0 10.2 44 0.0       100.53     LegendNANA
19:00 22.1 11.0 49 0.0       100.52     LegendNANA
20:00 22.2 11.4 50 0.0       100.46     LegendNANA
21:00 22.5 10.8 47 0.0       100.48     LegendNANA
22:00 22.4 10.6 47 0.0       100.43     LegendNANA
23:00 22.1 12.7 55 0.0       100.37 25   LegendNANA

Notes on Data Quality.

Legend

  • E = Estimated
  • M = Missing
  • NA = Not Available*
  • [empty] = Indicates an unobserved value
Date modified: